Weather History for Bainbridge, GA

Change the Weather History Date:

Saturday, October 27, 2012

  Actual Average (KMAI) Record (KMAI)
Temperature  
Mean Temperature 68 °F 65 °F  
Max Temperature 77 °F 77 °F 91 °F (2010)
Min Temperature 59 °F 53 °F 37 °F (2001)
Degree Days  
Heating Degree Days 0    
Month to date heating degree days  
Since 1 July heating degree days  
Cooling Degree Days 3    
Month to date cooling degree days  
Year to date cooling degree days  
Growing Degree Days 18 (Base 50)    
Moisture  
Dew Point 58 °F    
Average Humidity 72    
Maximum Humidity 88    
Minimum Humidity 54    
Precipitation  
Precipitation 0.00 in 0.11 in 1.47 in (2006)
Month to date precipitation 2.93  
Year to date precipitation 45.06  
Sea Level Pressure  
Sea Level Pressure 29.80 in    
Wind  
Wind Speed 8 mph (NNW)    
Max Wind Speed 16 mph    
Max Gust Speed 21 mph    
Visibility 10 miles    
Events      
T = Trace of Precipitation, MM = Missing Value Source: NWS Daily Summary

Daily Weather History Graph

Daily Weather History Graph

Search for Another Location

Airport:

Trip Planner

Search our weather history database for the weather conditions in past years. The results will help you decide how hot, cold, wet, or windy it might be!

Date:

Astronomy

Oct. 27, 2012 Rise Set
Actual Time 7:50 AM EDT 6:54 PM EDT
Civil Twilight 7:25 AM EDT 7:18 PM EDT
Nautical Twilight 6:57 AM EDT 7:47 PM EDT
Astronomical Twilight 6:28 AM EDT 8:15 PM EDT
Moon 5:35 PM EDT 5:50 AM EDT
Length of Visible Light 11h 53m
Length of Day
11h 03m
Waxing Gibbous, 96% of the Moon is Illuminated
Oct 27
Waxing Gibbous
Oct 29
Full
Nov 6
Last Quarter
Nov 13
New
Nov 20
First Quarter

Hourly Weather History & Observations

Time (EDT) Temp. Dew Point Humidity Pressure Visibility Wind Dir Wind Speed Gust Speed Precip Events Conditions
12:15 AM 69.8 °F 59.0 °F 68% 29.85 in 10.0 mi North 6.9 mph - N/A   Clear
12:35 AM 69.8 °F 59.0 °F 68% 29.85 in 10.0 mi NNE 5.8 mph - N/A   Clear
1:15 AM 69.8 °F 59.0 °F 68% 29.84 in 10.0 mi NNE 5.8 mph - N/A   Clear
1:35 AM 68.0 °F 59.0 °F 73% 29.83 in 10.0 mi NNE 5.8 mph - N/A   Clear
1:55 AM 68.0 °F 57.2 °F 68% 29.83 in 10.0 mi North 4.6 mph - N/A   Clear
2:15 AM 64.4 °F 57.2 °F 77% 29.83 in 10.0 mi North 4.6 mph - N/A   Clear
2:35 AM 64.4 °F 57.2 °F 77% 29.82 in 10.0 mi NNW 6.9 mph - N/A   Clear
2:55 AM 64.4 °F 57.2 °F 77% 29.82 in 10.0 mi NNW 8.1 mph - N/A   Clear
3:15 AM 64.4 °F 57.2 °F 77% 29.82 in 10.0 mi North 5.8 mph - N/A   Clear
3:35 AM 64.4 °F 57.2 °F 77% 29.81 in 10.0 mi NNW 5.8 mph - N/A   Clear
3:55 AM 64.4 °F 57.2 °F 77% 29.80 in 10.0 mi North 8.1 mph - N/A   Clear
4:15 AM 64.4 °F 57.2 °F 77% 29.80 in 10.0 mi North 5.8 mph - N/A   Clear
4:35 AM 62.6 °F 57.2 °F 82% 29.80 in 10.0 mi North 5.8 mph - N/A   Clear
4:55 AM 62.6 °F 55.4 °F 77% 29.80 in 10.0 mi NNW 5.8 mph - N/A   Clear
5:15 AM 62.6 °F 55.4 °F 77% 29.79 in 10.0 mi NNW 5.8 mph - N/A   Clear
5:35 AM 62.6 °F 55.4 °F 77% 29.79 in 10.0 mi NNW 5.8 mph - N/A   Clear
5:55 AM 62.6 °F 57.2 °F 82% 29.79 in 10.0 mi North 5.8 mph - N/A   Clear
6:15 AM 62.6 °F 57.2 °F 82% 29.79 in 10.0 mi North 6.9 mph - N/A   Clear
6:35 AM 62.6 °F 57.2 °F 82% 29.79 in 10.0 mi NNW 6.9 mph - N/A   Clear
6:55 AM 62.6 °F 57.2 °F 82% 29.80 in 10.0 mi NW 8.1 mph - N/A   Clear
7:15 AM 62.6 °F 57.2 °F 82% 29.81 in 10.0 mi NW 9.2 mph - N/A   Clear
7:35 AM 62.6 °F 57.2 °F 82% 29.81 in 10.0 mi NW 8.1 mph - N/A   Clear
7:55 AM 62.6 °F 57.2 °F 82% 29.82 in 10.0 mi NW 9.2 mph - N/A   Clear
8:15 AM 62.6 °F 59.0 °F 88% 29.83 in 10.0 mi NNW 10.4 mph - N/A   Clear
8:35 AM 62.6 °F 59.0 °F 88% 29.83 in 10.0 mi NNW 9.2 mph - N/A   Clear
8:55 AM 62.6 °F 59.0 °F 88% 29.84 in 10.0 mi NW 9.2 mph - N/A   Clear
9:15 AM 64.4 °F 59.0 °F 83% 29.84 in 10.0 mi NW 11.5 mph - N/A   Clear
9:35 AM 64.4 °F 59.0 °F 83% 29.84 in 10.0 mi NW 11.5 mph - N/A   Clear
10:15 AM 68.0 °F 60.8 °F 78% 29.85 in 10.0 mi NW 10.4 mph - N/A   Clear
10:35 AM 68.0 °F 60.8 °F 78% 29.84 in 10.0 mi NNW 8.1 mph - N/A   Clear
10:55 AM 69.8 °F 62.6 °F 78% 29.84 in 10.0 mi NNW 11.5 mph - N/A   Clear
11:15 AM 69.8 °F 60.8 °F 73% 29.85 in 10.0 mi NNW 8.1 mph - N/A   Clear
11:55 AM 71.6 °F 62.6 °F 73% 29.85 in 10.0 mi NNW 11.5 mph 17.3 mph N/A   Scattered Clouds
12:15 PM 71.6 °F 60.8 °F 69% 29.85 in 10.0 mi NNW 9.2 mph - N/A   Clear
12:35 PM 71.6 °F 60.8 °F 69% 29.83 in 10.0 mi North 6.9 mph 16.1 mph N/A   Clear
12:55 PM 73.4 °F 60.8 °F 65% 29.82 in 10.0 mi NNW 9.2 mph - N/A   Clear
1:15 PM 73.4 °F 60.8 °F 65% 29.81 in 10.0 mi NNW 11.5 mph - N/A   Clear
1:35 PM 75.2 °F 60.8 °F 61% 29.80 in 10.0 mi NW 8.1 mph - N/A   Clear
1:55 PM 77.0 °F 62.6 °F 61% 29.78 in 10.0 mi NNW 8.1 mph - N/A   Clear
2:15 PM 77.0 °F 60.8 °F 57% 29.77 in 10.0 mi NNW 9.2 mph - N/A   Clear
2:35 PM 77.0 °F 60.8 °F 57% 29.77 in 10.0 mi NNW 9.2 mph - N/A   Clear
2:55 PM 77.0 °F 59.0 °F 54% 29.76 in 10.0 mi NW 8.1 mph - N/A   Clear
3:15 PM 77.0 °F 59.0 °F 54% 29.74 in 10.0 mi WNW 12.7 mph 18.4 mph N/A   Clear
3:35 PM 77.0 °F 59.0 °F 54% 29.74 in 10.0 mi NNW 13.8 mph 18.4 mph N/A   Clear
3:55 PM 77.0 °F 59.0 °F 54% 29.74 in 10.0 mi NNW 9.2 mph 17.3 mph N/A   Clear
4:15 PM 77.0 °F 60.8 °F 57% 29.73 in 10.0 mi NW 12.7 mph 17.3 mph N/A   Clear
4:35 PM 77.0 °F 60.8 °F 57% 29.74 in 10.0 mi NW 10.4 mph - N/A   Clear
4:55 PM 77.0 °F 59.0 °F 54% 29.74 in 10.0 mi NNW 10.4 mph 17.3 mph N/A   Clear
5:15 PM 77.0 °F 60.8 °F 57% 29.74 in 10.0 mi WNW 16.1 mph 19.6 mph N/A   Clear
5:35 PM 75.2 °F 60.8 °F 61% 29.74 in 10.0 mi WNW 13.8 mph - N/A   Clear
5:55 PM 73.4 °F 59.0 °F 61% 29.75 in 10.0 mi WNW 12.7 mph 19.6 mph N/A   Clear
6:15 PM 73.4 °F 59.0 °F 61% 29.75 in 10.0 mi NW 11.5 mph 16.1 mph N/A   Clear
6:35 PM 71.6 °F 59.0 °F 64% 29.76 in 10.0 mi NW 13.8 mph - N/A   Clear
6:55 PM 71.6 °F 59.0 °F 64% 29.77 in 10.0 mi NW 11.5 mph - N/A   Clear
7:15 PM 69.8 °F 59.0 °F 68% 29.77 in 10.0 mi NW 9.2 mph - N/A   Clear
7:35 PM 69.8 °F 59.0 °F 68% 29.78 in 10.0 mi NW 9.2 mph - N/A   Clear
7:55 PM 68.0 °F 57.2 °F 68% 29.78 in 10.0 mi NW 10.4 mph - N/A   Clear
8:15 PM 68.0 °F 55.4 °F 64% 29.79 in 10.0 mi NW 9.2 mph - N/A   Clear
8:35 PM 68.0 °F 55.4 °F 64% 29.79 in 10.0 mi NW 11.5 mph 20.7 mph N/A   Clear
9:15 PM 62.6 °F 55.4 °F 77% 29.80 in 10.0 mi WNW 11.5 mph - N/A   Clear
9:35 PM 62.6 °F 53.6 °F 72% 29.81 in 10.0 mi NW 12.7 mph 17.3 mph N/A   Clear
9:55 PM 62.6 °F 53.6 °F 72% 29.82 in 10.0 mi NW 13.8 mph 18.4 mph N/A   Clear
10:15 PM 59.0 °F 53.6 °F 82% 29.82 in 10.0 mi NW 9.2 mph - N/A   Clear
10:35 PM 59.0 °F 53.6 °F 82% 29.83 in 10.0 mi NW 10.4 mph - N/A   Clear
10:55 PM 59.0 °F 53.6 °F 82% 29.83 in 10.0 mi NW 10.4 mph - N/A   Clear
11:15 PM 59.0 °F 51.8 °F 77% 29.83 in 10.0 mi NW 8.1 mph - N/A   Clear
11:35 PM 59.0 °F 53.6 °F 82% 29.83 in 10.0 mi NW 10.4 mph - N/A   Mostly Cloudy
11:55 PM 59.0 °F 53.6 °F 82% 29.83 in 10.0 mi NW 8.1 mph - N/A   Overcast